Weather History for Harbor Springs, MI

Change the Weather History Date:

Friday, August 30, 2013

  Actual Average (KPLN) Record (KPLN)
Temperature  
Mean Temperature 73 °F -  
Max Temperature 76 °F 75 °F 92 °F (1969)
Min Temperature 70 °F 51 °F 29 °F (1976)
Cooling Degree Days 8    
Growing Degree Days 23 (Base 50)    
Moisture  
Dew Point 69 °F    
Average Humidity 85    
Maximum Humidity 95    
Minimum Humidity 74    
Precipitation  
Precipitation 0.00 in - - ()
Sea Level Pressure  
Sea Level Pressure 29.83 in    
Wind  
Wind Speed 4 mph (West)    
Max Wind Speed 13 mph    
Max Gust Speed 24 mph    
Visibility 8 miles    
Events Rain    
Averages and records for this station are not official NWS values.
T = Trace of Precipitation, MM = Missing Value Source: NWS Daily Summary

Daily Weather History Graph

Daily Weather History Graph

Search for Another Location

Airport:

Trip Planner

Search our weather history database for the weather conditions in past years. The results will help you decide how hot, cold, wet, or windy it might be!

Date:

Astronomy

Aug. 30, 2013 Rise Set
Actual Time 6:58 AM EDT 8:20 PM EDT
Civil Twilight 6:28 AM EDT 8:51 PM EDT
Nautical Twilight 5:51 AM EDT 9:27 PM EDT
Astronomical Twilight 5:11 AM EDT 10:07 PM EDT
Moon 1:28 AM EDT (8/30) 4:44 PM EDT (8/30)
Length of Visible Light 14h 22m
Length of Day
13h 21m
Waning Crescent, 29% of the Moon is Illuminated
Aug 30
Waning Crescent
Sep 5
New
Sep 12
First Quarter
Sep 19
Full
Sep 26
Last Quarter

Hourly Weather History & Observations

Time (EDT) Temp. Dew Point Humidity Pressure Visibility Wind Dir Wind Speed Gust Speed Precip Events Conditions
12:15 AM 75.2 °F 69.4 °F 82% 29.95 in 10.0 mi Calm Calm - N/A   Clear
12:34 AM 75.2 °F 70.0 °F 84% 29.95 in 10.0 mi Calm Calm - N/A   Clear
12:55 AM 75.2 °F 69.6 °F 83% 29.94 in 10.0 mi Calm Calm - N/A   Clear
1:15 AM 75.2 °F 69.4 °F 82% 29.95 in 10.0 mi SW 3.5 mph - N/A   Scattered Clouds
1:34 AM 75.2 °F 69.8 °F 83% 29.94 in 10.0 mi Calm Calm - N/A   Scattered Clouds
1:55 AM 75.2 °F 69.4 °F 82% 29.93 in 10.0 mi Calm Calm - N/A   Clear
2:15 AM 75.2 °F 69.8 °F 83% 29.93 in 10.0 mi SSW 3.5 mph - N/A   Clear
2:34 AM 75.2 °F 69.3 °F 82% 29.94 in 10.0 mi Calm Calm - N/A   Clear
2:55 AM 75.2 °F 69.3 °F 82% 29.92 in 10.0 mi SSW 3.5 mph - N/A   Scattered Clouds
3:15 AM 75.9 °F 66.9 °F 74% 29.91 in 10.0 mi SW 6.9 mph - N/A   Scattered Clouds
3:34 AM 76.3 °F 67.5 °F 74% 29.89 in 10.0 mi SSW 9.2 mph - N/A   Clear
3:55 AM 75.2 °F 67.1 °F 76% 29.88 in 10.0 mi SSW 5.8 mph - N/A   Clear
4:14 AM 75.2 °F 68.0 °F 78% 29.87 in 10.0 mi SSW 3.5 mph - N/A   Light Drizzle
4:35 AM 75.2 °F 68.5 °F 80% 29.86 in 10.0 mi ESE 3.5 mph - N/A   Clear
4:55 AM 75.2 °F 68.9 °F 81% 29.85 in 10.0 mi Calm Calm - N/A   Clear
5:14 AM 75.2 °F 69.3 °F 82% 29.85 in 10.0 mi Calm Calm - N/A   Clear
5:35 AM 75.2 °F 70.0 °F 84% 29.86 in 10.0 mi SW 3.5 mph - N/A   Clear
5:54 AM 75.2 °F 70.2 °F 84% 29.87 in 10.0 mi WSW 5.8 mph - N/A   Clear
6:14 AM 75.2 °F 68.5 °F 80% 29.85 in 10.0 mi SW 11.5 mph 17.3 mph N/A Rain Light Rain
6:35 AM 71.6 °F 66.4 °F 84% 29.82 in 7.0 mi SSW 12.7 mph 24.2 mph N/A Rain Light Rain
6:54 AM 72.5 °F 66.2 °F 81% 29.79 in 10.0 mi East 3.5 mph - N/A   Scattered Clouds
7:14 AM 70.0 °F 65.8 °F 87% 29.82 in 10.0 mi WSW 9.2 mph - N/A   Clear
7:35 AM 71.6 °F 65.7 °F 81% 29.81 in 10.0 mi West 3.5 mph - N/A   Clear
7:54 AM 71.6 °F 66.0 °F 82% 29.80 in 10.0 mi Calm Calm - N/A   Clear
8:14 AM 75.2 °F 68.5 °F 80% 29.80 in 10.0 mi SSW 5.8 mph - N/A   Clear
8:35 AM 75.2 °F 68.5 °F 80% 29.79 in 10.0 mi SW 5.8 mph - N/A   Scattered Clouds
8:54 AM 75.2 °F 68.2 °F 79% 29.81 in 10.0 mi SW 5.8 mph - N/A   Mostly Cloudy
9:15 AM 73.6 °F 68.2 °F 83% 29.81 in 10.0 mi WSW 3.5 mph - N/A Rain Rain
9:35 AM 70.2 °F 66.9 °F 89% 29.82 in 7.0 mi West 6.9 mph - N/A Rain Rain
9:54 AM 70.0 °F 68.0 °F 93% 29.83 in 1.8 mi WNW 5.8 mph - N/A Rain Heavy Rain
10:15 AM 70.0 °F 68.2 °F 94% 29.83 in 1.0 mi South 3.5 mph - N/A Rain Heavy Rain
10:34 AM 70.0 °F 68.5 °F 95% 29.81 in 1.5 mi SSW 5.8 mph - N/A Rain Heavy Rain
10:54 AM 70.0 °F 68.5 °F 95% 29.79 in 4.0 mi WSW 4.6 mph - N/A Rain Rain
11:15 AM 70.0 °F 68.5 °F 95% 29.79 in 5.0 mi WSW 3.5 mph - N/A Rain Rain
11:34 AM 70.0 °F 68.2 °F 94% 29.78 in 5.0 mi South 3.5 mph - N/A   Light Drizzle
11:54 AM 70.0 °F 68.2 °F 94% 29.77 in 5.0 mi WSW 3.5 mph - N/A   Light Drizzle
12:15 PM 70.0 °F 68.2 °F 94% 29.77 in 7.0 mi SW 5.8 mph - N/A   Overcast
12:34 PM 70.0 °F 68.2 °F 94% 29.77 in 5.0 mi WSW 5.8 mph - N/A   Overcast
12:55 PM 71.6 °F 69.8 °F 94% 29.76 in 5.0 mi West 6.9 mph - N/A   Overcast
1:15 PM 72.5 °F 70.9 °F 95% 29.77 in 4.0 mi West 8.1 mph - N/A   Overcast
1:34 PM 72.7 °F 70.9 °F 94% 29.76 in 4.0 mi West 5.8 mph - N/A   Overcast
1:55 PM 75.2 °F 72.5 °F 91% 29.76 in 4.0 mi West 6.9 mph - N/A   Overcast
2:15 PM 73.0 °F 70.9 °F 93% 29.77 in 4.0 mi WSW 4.6 mph - N/A   Overcast
2:34 PM 75.2 °F 71.6 °F 89% 29.76 in 5.0 mi West 6.9 mph - N/A   Overcast
2:55 PM 75.2 °F 71.6 °F 89% 29.76 in 4.0 mi WSW 4.6 mph - N/A   Overcast
3:14 PM 75.2 °F 72.0 °F 90% 29.76 in 5.0 mi WSW 4.6 mph - N/A   Overcast
3:35 PM 75.2 °F 71.6 °F 89% 29.76 in 5.0 mi WSW 8.1 mph - N/A   Overcast
3:55 PM 75.2 °F 72.1 °F 90% 29.76 in 4.0 mi West 6.9 mph - N/A   Overcast
4:14 PM 75.2 °F 71.6 °F 89% 29.76 in 5.0 mi West 8.1 mph - N/A Rain Rain
4:35 PM 75.0 °F 70.2 °F 85% 29.76 in 10.0 mi NW 9.2 mph - N/A   Overcast
4:55 PM 75.2 °F 68.7 °F 80% 29.76 in 10.0 mi NW 9.2 mph - N/A   Mostly Cloudy
5:14 PM 75.2 °F 68.7 °F 80% 29.77 in 10.0 mi WNW 8.1 mph 16.1 mph N/A   Overcast
5:35 PM 75.2 °F 68.5 °F 80% 29.78 in 10.0 mi NW 9.2 mph - N/A   Overcast
5:54 PM 73.6 °F 67.8 °F 82% 29.78 in 10.0 mi NW 5.8 mph - N/A   Overcast
6:14 PM 75.0 °F 69.1 °F 82% 29.79 in 10.0 mi NNW 8.1 mph - N/A   Overcast
6:35 PM 75.2 °F 69.3 °F 82% 29.79 in 10.0 mi NNW 4.6 mph - N/A   Overcast
6:54 PM 73.0 °F 68.0 °F 84% 29.79 in 10.0 mi NNW 5.8 mph - N/A   Overcast
7:14 PM 75.2 °F 69.8 °F 83% 29.79 in 10.0 mi NNW 4.6 mph - N/A   Scattered Clouds
7:35 PM 75.2 °F 69.8 °F 83% 29.79 in 10.0 mi NNW 3.5 mph - N/A   Clear
7:54 PM 72.9 °F 68.2 °F 85% 29.81 in 10.0 mi Calm Calm - N/A   Clear
8:15 PM 72.7 °F 68.0 °F 85% 29.81 in 10.0 mi North 6.9 mph - N/A   Scattered Clouds
8:35 PM 72.5 °F 68.0 °F 86% 29.82 in 10.0 mi North 4.6 mph - N/A   Overcast
8:54 PM 72.5 °F 68.4 °F 87% 29.83 in 10.0 mi North 4.6 mph - N/A   Overcast
9:15 PM 72.5 °F 68.7 °F 88% 29.83 in 10.0 mi North 5.8 mph - N/A   Overcast
9:35 PM 72.5 °F 68.9 °F 88% 29.84 in 10.0 mi North 6.9 mph - N/A   Overcast
9:54 PM 72.5 °F 66.7 °F 82% 29.85 in 10.0 mi NNE 11.5 mph - N/A   Overcast
10:15 PM 72.5 °F 66.2 °F 81% 29.85 in 10.0 mi NNE 9.2 mph - N/A   Mostly Cloudy
10:35 PM 70.2 °F 64.6 °F 82% 29.85 in 10.0 mi NNE 4.6 mph - N/A   Scattered Clouds
10:54 PM 70.0 °F 65.5 °F 86% 29.85 in 10.0 mi NNE 4.6 mph - N/A   Clear
11:15 PM 70.0 °F 66.2 °F 88% 29.85 in 10.0 mi North 4.6 mph - N/A   Scattered Clouds
11:35 PM 70.0 °F 66.2 °F 88% 29.86 in 10.0 mi NNE 3.5 mph - N/A   Scattered Clouds
11:54 PM 70.0 °F 66.4 °F 88% 29.86 in 10.0 mi NNE 3.5 mph - N/A   Clear